Location: Arbon
(43.0005°N, 0.7472°E)
Time: 23:27:13
(UTC+00:00)

Courier 1B Rocket - Pass Details

Date: 06 December 2020
Orbit: 920 x 1202 km, 28.2° (Epoch: 22 January)

Event Time Altitude Azimuth Distance (km) Brightness Sun altitude
Rises 02:21:30 0° 221° (SW) 3,914 - -52.3°
Reaches altitude 10° 02:25:08 10° 204° (SSW) 3,006 - -51.7°
Maximum altitude 02:30:03 19° 162° (SSE) 2,452 - -50.8°
Exits shadow 02:34:53 11° 122° (ESE) 3,054 7.8 -50.0°
Drops below altitude 10° 02:35:07 10° 121° (ESE) 3,107 7.9 -49.9°
Sets 02:38:56 0° 105° (ESE) 4,090 8.8 -49.3°
